Location: Helds Island Access
(38.5526°N, 91.5997°W)
Time: 09:54:48
(UTC-05:00)

Daily predictions for brighter satellites

Satellite Brightness Start Highest point End
(mag) Time Altitude Azimuth Time Altitude Azimuth Time Altitude Azimuth
SPOT 3 Rocket 4.3 20:08:38 10° S 20:13:43 59° WSW 20:18:50 10° NNW
Thor Agena Rocket 3.9 20:09:43 10° NNE 20:14:42 43° E 20:19:42 10° S
Cosmos 1666 Rocket 4.5 20:11:18 10° NNE 20:15:18 31° ENE 20:19:14 10° SE
SJ-6B 3.0 20:12:12 10° SSE 20:16:11 59° ENE 20:20:07 10° N
Cosmos 1939 Rocket 3.8 20:15:53 10° SE 20:19:11 27° ENE 20:22:31 10° NNE
USA 186 2.5 20:18:26 10° ESE 20:20:09 19° ENE 20:21:53 10° NNE
NOSS 2-1 (C) 3.0 20:16:45 10° SSW 20:20:21 77° ESE 20:24:11 10° NE
HJ-1C 3.4 20:17:06 10° SSE 20:20:26 90° ENE 20:23:48 10° NNW
NOSS 2-1 (D) 3.0 20:17:43 10° SSW 20:21:19 81° ESE 20:25:11 10° NE
Sich 1 3.3 20:23:49 10° N 20:27:57 45° E 20:32:02 10° SSE
Cosmos 1809 Rocket 4.5 20:22:01 10° S 20:28:04 63° E 20:34:11 10° NNE
ATLAS 2AS CENTAUR R/B 3.6 20:21:23 10° NNW 20:28:46 40° NE 20:35:15 11° ESE
Spot 2 Rocket 4.4 20:26:52 10° SE 20:31:19 31° ENE 20:35:47 10° N
Cosmos 1300 4.1 20:29:23 10° SSW 20:33:01 42° W 20:36:41 10° N
Nadezhda 3 Rocket 4.1 20:34:38 10° N 20:40:54 63° E 20:47:11 10° SSE
Cosmos 2360 Rocket 4.1 20:36:42 10° SW 20:41:48 35° WNW 20:46:56 10° N
Cosmos 1980 4.3 20:37:41 10° SSE 20:42:45 34° ESE 20:47:49 10° NE
OAO 2 Rocket 3.7 20:40:27 10° W 20:45:31 53° S 20:49:18 17° ESE
Meteor 2-14 Rocket 4.4 20:40:00 10° S 20:46:00 66° E 20:52:03 10° NNE
Cosmos 1633 Rocket 3.1 20:44:06 10° N 20:48:23 58° E 20:52:40 10° SSE
Meteor 1-27 4.3 20:44:18 10° S 20:49:55 57° E 20:55:29 10° NNE
CZ-2D R/B 4.2 20:47:14 10° S 20:50:54 48° W 20:54:37 10° NNW
Cosmos 2333 Rocket 2.1 20:45:32 10° S 20:51:09 67° ESE 20:56:46 10° NNE
NOSS 2-1 (E) 4.1 20:48:12 10° SW 20:51:45 51° NW 20:55:38 10° NNE
Meteor 2-15 Rocket 4.4 20:47:28 10° N 20:53:39 79° E 20:59:46 10° S
Meteor 2-2 Rocket 4.3 20:48:38 10° S 20:54:27 88° E 21:00:26 10° N
Meteor 2-16 Rocket 4.4 20:49:26 10° S 20:55:29 64° E 21:01:32 10° NNE
COSMOS 2428 3.2 20:50:42 10° SSW 20:56:23 65° WNW 21:02:05 10° NNE
Cosmos 1455 2.1 20:53:06 10° S 20:56:53 67° E 21:00:43 10° NNE
Cosmos 2228 Rocket 3.5 20:52:59 10° SSE 20:57:03 39° E 21:01:09 10° NNE
Cosmos 1515 Rocket 4.0 20:53:06 10° SSE 20:57:15 40° E 21:01:26 10° NNE
ERS-2 2.9 20:55:38 10° S 20:59:12 52° W 21:02:48 10° NNW
Cosmos 1408 3.7 20:57:52 10° NNE 21:01:00 26° ENE 21:01:42 24° E
Cosmos 1844 Rocket 2.9 20:55:24 10° NNW 21:01:05 75° WSW 21:06:42 10° SSE
BREEZE-M DEB (TANK) 4.4 20:56:28 10° WSW 21:01:09 71° NNW 21:21:03 10° ENE
NOSS 3-3 (A) 4.1 20:58:34 10° SW 21:04:33 81° WNW 21:11:08 10° NNE
NOSS 3-3 (C) 4.0 20:58:40 10° SW 21:04:39 82° WNW 21:11:14 10° NNE
Cosmos 1844 3.7 20:58:58 10° NNW 21:04:42 90° E 21:09:34 15° SSE
Cosmos 1892 2.8 21:01:11 10° N 21:05:05 76° W 21:08:57 10° S
SL-8 R/B 3.6 21:02:43 10° SW 21:07:28 66° SE 21:12:14 10° ENE
H-2A R/B 3.3 21:07:51 20° E 21:09:15 22° ENE 21:13:02 10° NNE
Cosmos 2219 Rocket 2.5 21:04:06 10° SSW 21:09:45 72° WNW 21:15:25 10° NNE
Cosmos 2237 Rocket 2.2 21:04:50 10° S 21:10:17 55° ESE 21:15:46 10° NNE
ERS-1 Rocket 4.4 21:10:13 19° E 21:11:28 21° ENE 21:15:10 10° NNE
NOSS 3 (A) 4.2 21:09:42 10° SSW 21:12:25 69° ESE 21:15:21 10° NE
USA 267 3.9 21:09:24 10° ENE 21:14:57 29° SE 21:20:27 10° S
YAOGAN 6 3.6 21:12:35 10° S 21:16:02 46° W 21:19:33 10° NNW
Cosmos 1371 Rocket 4.4 21:11:58 14° SSE 21:16:10 40° ESE 21:21:08 10° NE
Cosmos 1328 Rocket 3.6 21:12:48 10° S 21:17:12 79° W 21:21:39 10° N
Genesis I 3.5 21:15:15 10° NNW 21:19:16 54° NE 21:20:28 38° ESE
Resurs 01 Rocket 2.0 21:16:04 11° S 21:20:16 62° W 21:24:41 10° NNW
Cosmos 2278 Rocket 2.4 21:15:31 10° NNW 21:21:04 53° ENE 21:23:35 31° SE
NOAA 11 4.1 21:20:32 19° SSE 21:24:34 85° ENE 21:30:07 10° NNW
Cosmos 1959 Rocket 4.4 21:23:06 13° S 21:28:31 62° E 21:34:34 10° NNE
Cosmos 1727 Rocket 4.5 21:23:58 10° N 21:29:44 40° ENE 21:31:35 32° ESE
Cosmos 1470 Rocket 3.5 21:26:08 10° N 21:30:34 90° ESE 21:32:39 31° S
ATLAS CENTAUR R/B 2.2 21:28:17 10° SW 21:31:49 46° NW 21:35:29 10° NNE
Cosmos 2056 Rocket 3.7 21:35:44 33° SSE 21:37:44 50° ESE 21:42:57 10° NNE
Cosmos 2098 Rocket 3.1 21:39:29 44° SSE 21:40:47 63° E 21:44:47 10° NNE
Cosmos 2218 Rocket 3.9 21:37:26 12° S 21:43:24 83° E 21:49:49 10° N
SL-08 R/B 4.4 21:42:01 25° S 21:45:48 69° E 21:52:11 10° NNE
Cosmos 1825 2.0 21:42:28 10° N 21:46:17 87° W 21:46:31 78° S
Cosmos 405 4.5 21:46:09 10° N 21:48:07 26° NNE 21:48:07 26° NNE
Cosmos 1624 Rocket 3.8 21:52:46 36° S 21:54:55 77° ESE 22:00:07 10° NNE
Cosmos 2366 rocket 3.9 21:51:34 19° S 21:56:16 86° W 22:02:35 10° N
BREEZE-M DEB (TANK) 3.7 21:53:34 10° WNW 21:55:37 33° WNW 21:55:37 33° WNW
Cosmos 1933 Rocket 4.2 21:54:58 10° NNW 21:59:13 50° W 22:00:35 36° SW
SL-16 R/B 2.2 21:59:33 56° ESE 21:59:42 56° ESE 22:05:14 10° NNE
Cosmos 2344 3.8 21:58:41 41° SE 21:59:42 43° ESE 22:07:06 10° NE
Cosmos 1190 Rocket 4.2 21:55:22 10° N 22:00:32 53° ENE 22:00:47 52° E
Cosmos 1869 3.9 22:02:49 47° WSW 22:03:33 56° W 22:07:31 10° N
Terra 3.7 22:05:06 18° NE 22:05:06 18° NE 22:07:23 10° NNE
GEOS 3 Rocket 3.5 22:01:40 10° NE 22:07:02 80° ESE 22:12:16 10° SSW
ARGOS 3.1 22:07:10 55° S 22:08:22 79° WSW 22:13:45 10° NNW
MetOp-B 4.1 22:12:10 63° S 22:13:02 82° WSW 22:18:25 10° NNW
Cosmos 1339 Rocket 4.5 22:09:18 10° N 22:15:24 77° W 22:17:10 49° S
SPOT 5 3.5 22:19:19 44° NNE 22:19:19 44° NNE 22:22:42 10° N
Lacrosse 5 4.4 22:17:28 10° N 22:19:42 13° NNE 22:21:54 10° NE
ATLAS 2AS CENTAUR R/B 3.5 22:12:31 10° NW 22:19:54 48° WSW 22:22:42 33° SSW
Cosmos 1869 Rocket 4.2 22:17:06 10° N 22:20:23 50° N 22:20:23 50° N
Helios 1B rocket 4.4 22:18:20 10° NNE 22:19:46 20° NNE 22:19:46 20° NNE
Meteor 2-10 Rocket 4.4 22:27:11 29° SW 22:29:53 54° WNW 22:35:35 10° N
Cosmos 2297 3.6 22:26:40 10° NNW 22:32:07 77° NNE 22:32:07 77° NNE
DMSP B5D2-2 4.2 22:27:12 10° NNE 22:31:42 66° NNE 22:31:42 66° NNE
Helios 1A 4.1 22:35:50 41° NNW 22:35:50 41° NNW 22:38:39 10° NNW
ATLAS 2A CENTAUR R/B 4.2 22:23:55 10° WSW 22:36:37 34° S 22:36:37 34° S
SPOT 1/Viking Rocket 3.8 22:40:49 64° N 22:40:49 64° N 22:45:15 10° NNW
Cosmos 2369 Rocket 4.0 22:36:40 10° N 22:40:15 20° NE 22:40:15 20° NE
H-2A R/B 2.9 22:48:28 40° W 22:48:28 40° W 22:53:07 10° NNW
ERS-1 Rocket 3.9 22:50:13 42° W 22:50:13 42° W 22:54:43 10° NNW
NOSS 3-4 (A) 3.7 22:43:21 10° NNW 22:50:30 88° WSW 22:51:00 80° SSE
NOSS 3-4 (C) 3.7 22:43:27 10° NNW 22:50:37 89° WSW 22:51:06 80° SSE
Cosmos 407 Rocket 4.2 22:47:09 10° NNW 22:51:21 47° WNW 22:51:21 47° WNW
Cosmos 1934 Rocket 4.5 22:54:46 48° NE 22:54:46 48° NE 22:59:13 10° NNE
SL-19 R/B 4.5 22:54:33 67° NNW 22:54:33 67° NNW 22:59:20 10° NNW
USA 267 3.4 22:51:44 10° NE 22:58:14 72° NW 23:04:44 10° WSW
Cosmos 2278 Rocket 4.1 23:00:41 10° NW 23:04:40 20° W 23:05:28 19° WSW
ATLAS 5 CENTAUR R/B 3.9 23:07:59 10° NNW 23:12:39 27° NE 23:12:39 27° NE
Cosmos 1821 Rocket 4.4 23:17:40 57° WNW 23:17:40 57° WNW 23:23:42 10° N
USA 234 3.9 23:30:25 46° NE 23:30:27 46° NE 23:36:38 10° NW
Terra 4.0 23:43:59 23° NW 23:43:59 23° NW 23:45:59 10° NNW
SL-16 R/B 4.4 23:41:17 15° W 23:44:10 21° NW 23:48:24 10° N
